Weather History for Wausau, WI

Change the Weather History Date:

Thursday, February 20, 2014

  Actual Average Record
Temperature  
Mean Temperature 31 °F 21 °F  
Max Temperature 34 °F 30 °F 53 °F (1930)
Min Temperature 28 °F 12 °F -27 °F (1929)
Degree Days  
Heating Degree Days 34 44  
Month to date heating degree days 1145 942  
Since 1 July heating degree days 6455 5792  
Cooling Degree Days 0 0  
Month to date cooling degree days 0 0  
Year to date cooling degree days 0 0  
Moisture  
Dew Point 28 °F    
Average Humidity 81    
Maximum Humidity 100    
Minimum Humidity 61    
Precipitation  
Precipitation 0.46 in 0.04 in 0.83 in (1954)
Month to date precipitation 1.15 0.61  
Year to date precipitation 2.70 1.63  
Snow  
Snow 1.00 in 0.40 in 8.70 in (2011)
Month to date snowfall 13.3 6.8  
Since 1 July snowfall 65.3 42.5  
Snow Depth 24.00 in    
Sea Level Pressure  
Sea Level Pressure 29.42 in    
Wind  
Wind Speed 13 mph (ESE)    
Max Wind Speed 31 mph    
Max Gust Speed 43 mph    
Visibility 6 miles    
Events Rain , Snow    
T = Trace of Precipitation, MM = Missing Value Source: NWS Daily Summary

Daily Weather History Graph

Daily Weather History Graph

Search for Another Location

Airport:

Trip Planner

Search our weather history database for the weather conditions in past years. The results will help you decide how hot, cold, wet, or windy it might be!

Date:

Astronomy

Feb. 20, 2014 Rise Set
Actual Time 6:51 AM CST 5:33 PM CST
Civil Twilight 6:21 AM CST 6:03 PM CST
Nautical Twilight 5:47 AM CST 6:37 PM CST
Astronomical Twilight 5:13 AM CST 7:11 PM CST
Moon 11:45 PM CST (2/20) 9:18 AM CST (2/20)
Length of Visible Light 11h 42m
Length of Day
10h 42m
Waning Gibbous, 70% of the Moon is Illuminated
Feb 20
Waning Gibbous
Feb 22
Last Quarter
Mar 1
New
Mar 8
First Quarter
Mar 16
Full

Hourly Weather History & Observations

Time (CST) Temp. Windchill Dew Point Humidity Pressure Visibility Wind Dir Wind Speed Gust Speed Precip Events Conditions
12:54 AM 32.0 °F 28.7 °F 21.0 °F 64% 29.85 in 10.0 mi SSE 3.5 mph - N/A   Partly Cloudy
1:54 AM 30.9 °F - 19.9 °F 64% 29.85 in 10.0 mi Calm Calm - N/A   Clear
2:54 AM 30.0 °F 24.1 °F 19.0 °F 64% 29.82 in 10.0 mi East 5.8 mph - N/A   Scattered Clouds
3:54 AM 28.9 °F 21.1 °F 19.0 °F 67% 29.80 in 10.0 mi East 8.1 mph - N/A   Mostly Cloudy
4:54 AM 28.9 °F 22.8 °F 19.9 °F 69% 29.78 in 10.0 mi East 5.8 mph - N/A   Overcast
5:54 AM 28.9 °F 21.1 °F 19.9 °F 69% 29.76 in 10.0 mi ESE 8.1 mph - N/A   Overcast
6:54 AM 30.0 °F 22.4 °F 21.0 °F 69% 29.76 in 10.0 mi ESE 8.1 mph - N/A   Overcast
7:54 AM 30.0 °F 20.5 °F 21.9 °F 72% 29.75 in 9.0 mi ESE 11.5 mph - N/A   Overcast
8:30 AM 30.0 °F 21.1 °F 21.0 °F 69% 29.69 in 10.0 mi ESE 10.4 mph - N/A   Overcast
8:54 AM 30.9 °F 21.7 °F 21.9 °F 69% 29.73 in 10.0 mi ESE 11.5 mph - N/A   Overcast
9:54 AM 32.0 °F 24.2 °F 23.0 °F 69% 29.70 in 10.0 mi ESE 9.2 mph - N/A   Overcast
10:54 AM 33.1 °F 24.9 °F 27.0 °F 78% 29.68 in 7.0 mi ESE 10.4 mph - N/A   Overcast
11:54 AM 34.0 °F 23.4 °F 30.0 °F 85% 29.63 in 4.0 mi ESE 17.3 mph - 0.00 in   Overcast
12:14 PM 34.0 °F 22.7 °F 30.0 °F 85% 29.57 in 2.0 mi ESE 19.6 mph 24.2 mph 0.00 in   Overcast
12:27 PM 34.0 °F 24.6 °F 30.9 °F 89% 29.56 in 1.8 mi ESE 13.8 mph 24.2 mph 0.00 in Rain Light Rain
12:51 PM 33.8 °F 23.9 °F 30.2 °F 87% 29.55 in 1.5 mi East 15.0 mph - 0.00 in   Overcast
12:54 PM 34.0 °F 24.2 °F 30.9 °F 89% 29.60 in 1.5 mi ESE 15.0 mph - 0.00 in   Overcast
1:07 PM 34.0 °F 24.2 °F 30.9 °F 89% 29.52 in 3.0 mi East 15.0 mph - 0.00 in   Overcast
1:42 PM 34.0 °F 23.8 °F 32.0 °F 92% 29.48 in 2.0 mi ESE 16.1 mph 25.3 mph 0.00 in   Overcast
1:54 PM 34.0 °F 23.0 °F 32.0 °F 92% 29.50 in 3.0 mi East 18.4 mph 29.9 mph 0.00 in   Overcast
2:45 PM 34.0 °F 21.0 °F 32.0 °F 92% 29.39 in 9.0 mi ESE 26.5 mph 35.7 mph N/A   Overcast
2:54 PM 34.0 °F 22.1 °F 30.9 °F 89% 29.43 in 10.0 mi ESE 21.9 mph 35.7 mph N/A   Overcast
3:54 PM 34.0 °F 20.5 °F 30.9 °F 89% 29.36 in 10.0 mi East 28.8 mph 38.0 mph N/A   Overcast
4:54 PM 33.1 °F 21.9 °F 30.9 °F 92% 29.32 in 2.5 mi East 18.4 mph 39.1 mph 0.05 in Rain Rain
5:10 PM 33.1 °F 20.6 °F 30.9 °F 92% 29.28 in 3.0 mi ESE 23.0 mph 33.4 mph 0.05 in Rain Rain
5:54 PM 33.1 °F 21.2 °F 30.9 °F 92% 29.27 in 7.0 mi East 20.7 mph 34.5 mph 0.13 in Rain Light Rain
6:54 PM 33.1 °F 21.5 °F 32.0 °F 96% 29.16 in 7.0 mi East 19.6 mph 36.8 mph 0.15 in Rain Light Rain
7:54 PM 33.1 °F 20.6 °F 32.0 °F 96% 29.08 in 10.0 mi East 23.0 mph 35.7 mph 0.00 in   Overcast
8:15 PM 33.1 °F 20.9 °F 32.0 °F 96% 29.03 in 9.0 mi ESE 21.9 mph 33.4 mph 0.00 in Rain Light Rain
8:54 PM 33.1 °F 21.9 °F 33.1 °F 100% 29.03 in 5.0 mi ESE 18.4 mph 32.2 mph 0.00 in   Overcast
9:54 PM 33.1 °F 25.5 °F 33.1 °F 100% 29.00 in 4.0 mi ESE 9.2 mph - 0.00 in Rain Light Rain
10:18 PM 33.1 °F 25.5 °F 33.1 °F 100% 28.93 in 1.8 mi East 9.2 mph 19.6 mph 0.05 in Snow Light Snow
10:24 PM 33.1 °F 26.1 °F 33.1 °F 100% 28.92 in 3.0 mi East 8.1 mph - 0.05 in Snow Light Snow
10:54 PM 33.1 °F 27.7 °F 33.1 °F 100% 28.94 in 3.0 mi East 5.8 mph - 0.06 in Snow Light Snow
11:02 PM 33.1 °F 28.7 °F 33.1 °F 100% 28.89 in 2.0 mi East 4.6 mph - 0.00 in Snow Light Snow
11:24 PM 33.1 °F - 33.1 °F 100% 28.87 in 1.8 mi Calm Calm - 0.02 in Snow Light Snow
11:54 PM 32.0 °F 24.2 °F 32.0 °F 100% 28.91 in 1.5 mi WNW 9.2 mph - 0.03 in Snow Light Snow